TimeCST,TemperatureF,Dew PointF,Humidity,Sea Level PressureIn,VisibilityMPH,Wind Direction,Wind SpeedMPH,Gust SpeedMPH,PrecipitationIn,Events,Conditions,WindDirDegrees,DateUTC
12:15 AM,30.4,29.1,95,29.68,3.0,NNW,10.4,-,N/A,Snow,Light Snow,340,2013-01-29 06:15:00
12:35 AM,30.2,29.1,96,29.70,10.0,NW,9.2,-,N/A,Snow,Light Snow,310,2013-01-29 06:35:00
12:55 AM,30.6,29.3,95,29.69,5.0,NW,9.2,-,N/A,Snow,Light Snow,320,2013-01-29 06:55:00
1:15 AM,30.6,29.3,95,29.69,4.0,NW,10.4,-,0.01,Snow,Light Snow,320,2013-01-29 07:15:00
1:35 AM,30.2,28.9,95,29.68,10.0,NW,10.4,-,0.01,,Overcast,310,2013-01-29 07:35:00
1:55 AM,30.2,28.9,95,29.69,10.0,NW,8.1,-,0.01,,Overcast,320,2013-01-29 07:55:00
2:15 AM,30.2,28.9,95,29.70,10.0,NW,5.8,-,N/A,,Overcast,310,2013-01-29 08:15:00
2:35 AM,30.2,28.9,95,29.70,10.0,NW,5.8,-,N/A,,Overcast,320,2013-01-29 08:35:00
2:55 AM,30.6,29.1,94,29.71,10.0,NW,9.2,-,N/A,,Overcast,320,2013-01-29 08:55:00
3:15 AM,30.2,28.6,94,29.69,10.0,NNW,9.2,-,N/A,,Overcast,330,2013-01-29 09:15:00
3:35 AM,30.2,28.4,93,29.68,10.0,NNW,10.4,-,N/A,,Overcast,330,2013-01-29 09:35:00
3:55 AM,30.2,28.8,94,29.68,10.0,NNW,9.2,-,N/A,,Overcast,330,2013-01-29 09:55:00
4:15 AM,30.2,28.8,94,29.69,10.0,NW,5.8,-,N/A,,Overcast,320,2013-01-29 10:15:00
4:35 AM,30.2,28.8,94,29.69,10.0,Calm,Calm,-,N/A,,Overcast,0,2013-01-29 10:35:00
4:55 AM,29.7,28.2,94,29.69,10.0,NW,3.5,-,N/A,,Overcast,310,2013-01-29 10:55:00
5:15 AM,29.1,27.7,94,29.69,10.0,WNW,3.5,-,N/A,,Overcast,300,2013-01-29 11:15:00
5:35 AM,28.8,27.3,94,29.70,10.0,WNW,4.6,-,N/A,,Overcast,290,2013-01-29 11:35:00
5:55 AM,28.6,27.3,95,29.70,10.0,WNW,4.6,-,N/A,,Overcast,290,2013-01-29 11:55:00
6:15 AM,28.2,26.6,94,29.69,10.0,WNW,4.6,-,N/A,,Overcast,300,2013-01-29 12:15:00
6:35 AM,27.9,26.2,94,29.69,10.0,WNW,3.5,-,N/A,,Overcast,300,2013-01-29 12:35:00
6:55 AM,27.9,26.4,94,29.69,10.0,West,4.6,-,N/A,,Overcast,280,2013-01-29 12:55:00
7:15 AM,28.2,26.8,94,29.69,10.0,WNW,5.8,-,N/A,,Overcast,300,2013-01-29 13:15:00
7:35 AM,28.0,26.2,93,29.69,10.0,NW,5.8,-,N/A,,Overcast,310,2013-01-29 13:35:00
7:55 AM,27.5,25.7,93,29.70,10.0,NW,5.8,-,N/A,,Mostly Cloudy,310,2013-01-29 13:55:00
8:15 AM,26.4,24.3,92,29.70,10.0,WNW,5.8,-,N/A,,Scattered Clouds,300,2013-01-29 14:15:00
8:35 AM,26.2,23.9,91,29.70,10.0,WNW,4.6,-,N/A,,Scattered Clouds,290,2013-01-29 14:35:00
8:55 AM,26.6,24.6,92,29.71,10.0,Calm,Calm,-,N/A,,Overcast,0,2013-01-29 14:55:00
9:15 AM,27.9,25.3,90,29.71,10.0,NW,4.6,-,N/A,,Overcast,310,2013-01-29 15:15:00
9:35 AM,27.9,24.8,88,29.70,10.0,NW,4.6,-,N/A,,Mostly Cloudy,310,2013-01-29 15:35:00
9:55 AM,27.9,24.8,88,29.70,10.0,NW,4.6,-,N/A,,Scattered Clouds,310,2013-01-29 15:55:00
10:15 AM,28.4,25.5,89,29.71,10.0,WNW,4.6,-,N/A,,Mostly Cloudy,300,2013-01-29 16:15:00
10:35 AM,29.3,25.5,86,29.70,10.0,NW,6.9,-,N/A,,Overcast,320,2013-01-29 16:35:00
10:55 AM,29.8,25.7,85,29.71,10.0,NW,8.1,-,N/A,,Overcast,310,2013-01-29 16:55:00
11:15 AM,30.0,25.7,84,29.72,10.0,NW,6.9,-,N/A,,Mostly Cloudy,310,2013-01-29 17:15:00
11:35 AM,30.0,25.9,85,29.71,10.0,NW,8.1,-,N/A,,Scattered Clouds,320,2013-01-29 17:35:00
11:55 AM,30.2,26.1,85,29.71,10.0,NW,8.1,-,N/A,,Clear,320,2013-01-29 17:55:00
12:15 PM,30.9,26.6,84,29.71,10.0,NW,8.1,-,N/A,,Scattered Clouds,320,2013-01-29 18:15:00
12:35 PM,31.1,27.3,86,29.70,10.0,NNW,6.9,-,N/A,,Overcast,330,2013-01-29 18:35:00
12:55 PM,31.8,27.5,84,29.70,10.0,NW,8.1,-,0.01,,Overcast,320,2013-01-29 18:55:00
1:15 PM,32.0,27.3,83,29.70,10.0,NNW,9.2,-,N/A,,Overcast,330,2013-01-29 19:15:00
1:35 PM,32.0,27.5,83,29.70,10.0,NNW,8.1,-,N/A,,Overcast,330,2013-01-29 19:35:00
1:55 PM,32.2,27.9,84,29.70,10.0,NNW,9.2,-,N/A,,Overcast,340,2013-01-29 19:55:00
2:15 PM,32.5,28.2,84,29.69,10.0,NNW,11.5,-,N/A,,Mostly Cloudy,330,2013-01-29 20:15:00
2:35 PM,32.2,28.2,85,29.68,10.0,NNW,10.4,-,0.01,,Scattered Clouds,340,2013-01-29 20:35:00
2:55 PM,32.7,27.9,82,29.68,10.0,North,13.8,-,0.01,,Mostly Cloudy,350,2013-01-29 20:55:00
3:15 PM,32.4,27.1,81,29.69,10.0,North,12.7,-,N/A,,Overcast,350,2013-01-29 21:15:00
3:35 PM,32.0,26.6,80,29.69,10.0,North,13.8,-,N/A,,Overcast,350,2013-01-29 21:35:00
3:55 PM,32.0,27.3,83,29.69,10.0,North,10.4,-,N/A,,Overcast,360,2013-01-29 21:55:00
4:15 PM,32.0,27.5,83,29.69,10.0,North,11.5,-,N/A,,Overcast,350,2013-01-29 22:15:00
4:35 PM,32.0,27.9,85,29.72,10.0,North,11.5,-,N/A,,Overcast,350,2013-01-29 22:35:00
4:55 PM,32.0,27.7,84,29.73,10.0,NNW,11.5,-,N/A,,Overcast,330,2013-01-29 22:55:00
5:15 PM,31.8,27.5,84,29.73,10.0,NNW,6.9,-,N/A,,Overcast,330,2013-01-29 23:15:00
5:35 PM,31.3,27.5,86,29.74,10.0,NNW,8.1,-,N/A,,Overcast,330,2013-01-29 23:35:00
5:55 PM,31.1,26.2,82,29.76,10.0,NNW,8.1,-,N/A,,Overcast,330,2013-01-29 23:55:00
6:15 PM,30.4,24.8,80,29.76,10.0,NNW,11.5,-,N/A,,Mostly Cloudy,330,2013-01-30 00:15:00
6:35 PM,29.3,23.4,78,29.77,10.0,NNW,11.5,-,N/A,,Scattered Clouds,330,2013-01-30 00:35:00
6:55 PM,27.3,22.3,81,29.76,10.0,NNW,11.5,-,N/A,,Clear,330,2013-01-30 00:55:00
7:15 PM,26.6,22.5,84,29.78,10.0,NNW,11.5,-,N/A,,Clear,330,2013-01-30 01:15:00
7:35 PM,25.9,22.3,86,29.80,10.0,NNW,10.4,-,N/A,,Clear,330,2013-01-30 01:35:00
7:55 PM,25.5,22.3,88,29.80,10.0,NW,9.2,-,N/A,,Clear,320,2013-01-30 01:55:00
8:15 PM,24.3,20.8,87,29.81,10.0,NNW,8.1,-,N/A,,Clear,330,2013-01-30 02:15:00
8:35 PM,24.4,22.1,91,29.82,10.0,NNW,10.4,-,N/A,,Mostly Cloudy,330,2013-01-30 02:35:00
8:55 PM,27.5,25.0,90,29.82,10.0,NNW,18.4,21.9,N/A,,Overcast,340,2013-01-30 02:55:00
9:15 PM,27.3,24.6,90,29.82,10.0,North,23.0,-,N/A,,Overcast,350,2013-01-30 03:15:00
9:35 PM,27.5,25.3,92,29.82,10.0,North,19.6,-,N/A,,Overcast,350,2013-01-30 03:35:00
9:55 PM,27.5,25.7,93,29.83,5.0,North,25.3,32.2,N/A,,Overcast,360,2013-01-30 03:55:00
10:15 PM,26.6,24.8,93,29.84,4.0,North,25.3,29.9,N/A,Snow,Light Snow,350,2013-01-30 04:15:00
10:35 PM,25.3,23.4,92,29.84,3.0,NNW,25.3,31.1,N/A,,Overcast,340,2013-01-30 04:35:00
10:55 PM,23.9,21.9,92,29.85,2.5,NNW,24.2,32.2,N/A,,Overcast,340,2013-01-30 04:55:00
11:15 PM,23.0,21.0,92,29.86,2.0,North,27.6,32.2,N/A,,Overcast,350,2013-01-30 05:15:00
11:35 PM,21.7,19.2,90,29.88,1.2,North,34.5,39.1,N/A,Snow,Light Snow,350,2013-01-30 05:35:00
11:55 PM,19.2,16.0,87,29.89,1.0,North,31.1,38.0,N/A,Snow,Light Snow,350,2013-01-30 05:55:00